User: anonymous   Login
Location: Theydon Bois
(51.6750°N, 0.1050°E)
Time: 14:16:24
(UTC+00:00)
Language:

Cosmos 1953 - Orbit

View from above orbital plane
View from above orbital plane
View from above satellite
View from above satellite

Ground track
Ground track

The orbit data is extracted from the following two-line orbital elements,

1 19210U 88050A   17348.69722709 -.00000003  00000-0 -22231-5 0  9999
2 19210  82.5169 218.3499 0013685  12.5952 347.5614 15.05454219604993
Epoch (UTC): 14 December 2017 16:44:00
Eccentricity: 0.0013685
inclination: 82.5169°
perigee height: 540 km
apogee height: 559 km
right ascension of ascending node: 218.3499°
argument of perigee: 12.5952°
revolutions per day: 15.05454219
mean anomaly at epoch: 347.5614°
orbit number at epoch: 60499

The dashed part of the orbit path shows where the satellite is in the earth's shadow,  

DLR